When you browse on this site, cookies collect data to enhance your experience and personalize the content and advertising you see.
Visit our Privacy Policy to learn more. By continuing to use the site, you agree to this use of cookies and data.
  • en Suisse
  • Liste des pays
  • À 7 jours
  • Température de l'eau
  • Carte météo
  • Widgets météo
  • user-avatar
    Se connecter

    Météo par heure à Berne

    Ce jour, 21 Octobre, Lundi

    Heure Température Précipitation Vent Pression Humidité
    00:00 +13°C° 0.1 mm 1 m/s 712 mmHg 92%
    01:00 +13°C° 1 mm 1 m/s 712 mmHg 93%
    02:00 +13°C° 1 mm 1 m/s 713 mmHg 95%
    03:00 +12°C° 1 mm 0 m/s 713 mmHg 97%
    04:00 +12°C° 0.1 mm 0 m/s 714 mmHg 96%
    05:00 +12°C° 0.1 mm 0 m/s 714 mmHg 96%
    06:00 +12°C° 0.1 mm 0 m/s 715 mmHg 96%
    07:00 +13°C° 0 mm 0 m/s 715 mmHg 95%
    08:00 +13°C° 0 mm 0 m/s 716 mmHg 94%
    09:00 +15°C° 0 mm 1 m/s 716 mmHg 93%
    10:00 +15°C° 0.1 mm 1 m/s 716 mmHg 92%
    11:00 +15°C° 0.1 mm 1 m/s 717 mmHg 90%
    12:00 +16°C° 0.1 mm 1 m/s 717 mmHg 89%
    13:00 +15°C° 0.3 mm 1 m/s 717 mmHg 91%
    14:00 +15°C° 0.3 mm 1 m/s 717 mmHg 93%
    15:00 +14°C° 0.3 mm 1 m/s 717 mmHg 95%
    16:00 +14°C° 0.3 mm 1 m/s 717 mmHg 95%
    17:00 +14°C° 0.3 mm 1 m/s 718 mmHg 96%
    18:00 +13°C° 0.3 mm 1 m/s 718 mmHg 97%
    19:00 +13°C° 0.1 mm 1 m/s 718 mmHg 96%
    20:00 +12°C° 0.1 mm 0 m/s 718 mmHg 96%
    21:00 +12°C° 0.1 mm 0 m/s 719 mmHg 96%
    22:00 +12°C° 0 mm 0 m/s 719 mmHg 96%
    23:00 +13°C° 0 mm 1 m/s 719 mmHg 96%

    Demain, 22 Octobre, Mardi

    Heure Température Précipitation Vent Pression Humidité
    00:00 +12°C° 0 mm 1 m/s 719 mmHg 96%
    01:00 +12°C° 0 mm 1 m/s 719 mmHg 96%
    02:00 +12°C° 0 mm 1 m/s 719 mmHg 95%
    03:00 +12°C° 0 mm 1 m/s 718 mmHg 95%
    04:00 +12°C° 0 mm 1 m/s 718 mmHg 95%
    05:00 +12°C° 0 mm 1 m/s 718 mmHg 95%
    06:00 +12°C° 0 mm 1 m/s 719 mmHg 96%
    07:00 +13°C° 0 mm 1 m/s 719 mmHg 93%
    08:00 +14°C° 0 mm 1 m/s 719 mmHg 91%
    09:00 +15°C° 0 mm 2 m/s 719 mmHg 89%
    10:00 +16°C° 0 mm 2 m/s 719 mmHg 85%
    11:00 +17°C° 0 mm 2 m/s 719 mmHg 81%
    12:00 +18°C° 0 mm 2 m/s 719 mmHg 77%
    13:00 +18°C° 0 mm 2 m/s 718 mmHg 79%
    14:00 +17°C° 0 mm 2 m/s 718 mmHg 81%
    15:00 +17°C° 0 mm 2 m/s 717 mmHg 83%
    16:00 +16°C° 0 mm 2 m/s 717 mmHg 86%
    17:00 +15°C° 0 mm 2 m/s 717 mmHg 90%
    18:00 +14°C° 0 mm 2 m/s 717 mmHg 93%
    19:00 +13°C° 0 mm 2 m/s 717 mmHg 93%
    20:00 +13°C° 0 mm 2 m/s 717 mmHg 93%
    21:00 +13°C° 0 mm 2 m/s 717 mmHg 93%
    22:00 +12°C° 0 mm 2 m/s 717 mmHg 92%
    23:00 +12°C° 0 mm 1 m/s 716 mmHg 92%

    Après-demain, 23 Octobre, Mercredi

    Heure Température Précipitation Vent Pression Humidité
    00:00 +12°C° 0 mm 1 m/s 716 mmHg 92%
    01:00 +11°C° 0 mm 1 m/s 716 mmHg 92%
    02:00 +11°C° 0 mm 1 m/s 716 mmHg 91%
    03:00 +11°C° 0 mm 1 m/s 715 mmHg 91%
    04:00 +11°C° 0 mm 1 m/s 715 mmHg 90%
    05:00 +11°C° 0 mm 1 m/s 715 mmHg 88%
    06:00 +11°C° 0 mm 1 m/s 714 mmHg 87%
    07:00 +13°C° 0 mm 1 m/s 714 mmHg 83%
    08:00 +14°C° 0 mm 1 m/s 714 mmHg 79%
    09:00 +16°C° 0 mm 1 m/s 714 mmHg 75%
    10:00 +18°C° 0 mm 1 m/s 714 mmHg 70%
    11:00 +20°C° 0 mm 1 m/s 714 mmHg 64%
    12:00 +21°C° 0 mm 1 m/s 714 mmHg 59%
    13:00 +21°C° 0 mm 1 m/s 713 mmHg 64%
    14:00 +20°C° 0 mm 1 m/s 713 mmHg 69%
    15:00 +20°C° 0 mm 1 m/s 712 mmHg 74%
    16:00 +18°C° 0 mm 1 m/s 712 mmHg 76%
    17:00 +15°C° 0 mm 1 m/s 712 mmHg 79%
    18:00 +14°C° 0 mm 1 m/s 712 mmHg 82%
    19:00 +13°C° 0 mm 1 m/s 712 mmHg 81%
    20:00 +13°C° 0 mm 1 m/s 712 mmHg 81%
    21:00 +13°C° 0 mm 1 m/s 712 mmHg 80%
    22:00 +13°C° 0 mm 1 m/s 712 mmHg 80%
    23:00 +13°C° 0 mm 1 m/s 712 mmHg 79%

    24 Octobre, Jeudi

    Heure Température Précipitation Vent Pression Humidité
    00:00 +13°C° 0 mm 1 m/s 712 mmHg 78%
    01:00 +12°C° 0 mm 1 m/s 712 mmHg 79%
    02:00 +12°C° 0 mm 1 m/s 712 mmHg 80%
    03:00 +12°C° 0 mm 1 m/s 711 mmHg 81%
    04:00 +12°C° 0 mm 1 m/s 711 mmHg 81%
    05:00 +12°C° 0 mm 1 m/s 711 mmHg 82%
    06:00 +12°C° 0 mm 1 m/s 711 mmHg 82%
    07:00 +13°C° 0 mm 1 m/s 712 mmHg 78%
    08:00 +14°C° 0 mm 0 m/s 712 mmHg 73%
    09:00 +16°C° 0 mm 0 m/s 713 mmHg 68%
    10:00 +19°C° 0 mm 1 m/s 713 mmHg 68%
    11:00 +19°C° 0 mm 1 m/s 713 mmHg 67%
    12:00 +19°C° 0 mm 2 m/s 713 mmHg 66%
    13:00 +17°C° 0.2 mm 2 m/s 713 mmHg 73%
    14:00 +16°C° 0.2 mm 1 m/s 713 mmHg 80%
    15:00 +15°C° 0.2 mm 1 m/s 713 mmHg 86%
    16:00 +15°C° 0.2 mm 1 m/s 714 mmHg 87%
    17:00 +14°C° 0.2 mm 1 m/s 714 mmHg 88%
    18:00 +13°C° 0.2 mm 0 m/s 714 mmHg 90%
    19:00 +13°C° 0 mm 0 m/s 715 mmHg 89%
    20:00 +13°C° 0 mm 0 m/s 715 mmHg 89%
    21:00 +12°C° 0 mm 0 m/s 716 mmHg 89%
    22:00 +12°C° 0 mm 0 m/s 716 mmHg 88%
    23:00 +12°C° 0 mm 0 m/s 716 mmHg 88%

    25 Octobre, Vendredi

    Heure Température Précipitation Vent Pression Humidité
    00:00 +12°C° 0 mm 0 m/s 717 mmHg 88%
    01:00 +12°C° 0 mm 0 m/s 717 mmHg 89%
    02:00 +11°C° 0 mm 0 m/s 717 mmHg 90%
    03:00 +11°C° 0 mm 0 m/s 717 mmHg 91%
    04:00 +11°C° 0 mm 0 m/s 717 mmHg 91%
    05:00 +11°C° 0 mm 0 m/s 718 mmHg 91%
    06:00 +10°C° 0 mm 0 m/s 718 mmHg 91%
    07:00 +12°C° 0 mm 0 m/s 718 mmHg 89%
    08:00 +14°C° 0 mm 1 m/s 719 mmHg 87%
    09:00 +15°C° 0 mm 1 m/s 719 mmHg 84%
    10:00 +15°C° 0 mm 1 m/s 719 mmHg 80%
    11:00 +16°C° 0 mm 2 m/s 719 mmHg 76%
    12:00 +17°C° 0 mm 2 m/s 719 mmHg 72%
    13:00 +17°C° 0 mm 2 m/s 719 mmHg 73%
    14:00 +16°C° 0 mm 2 m/s 718 mmHg 75%
    15:00 +16°C° 0 mm 2 m/s 718 mmHg 76%
    16:00 +15°C° 0 mm 2 m/s 718 mmHg 82%
    17:00 +13°C° 0 mm 1 m/s 718 mmHg 87%
    18:00 +12°C° 0 mm 1 m/s 718 mmHg 93%
    19:00 +11°C° 0 mm 1 m/s 718 mmHg 93%
    20:00 +11°C° 0 mm 1 m/s 718 mmHg 93%
    21:00 +10°C° 0 mm 0 m/s 718 mmHg 92%
    22:00 +10°C° 0 mm 0 m/s 718 mmHg 92%
    23:00 +11°C° 0 mm 1 m/s 718 mmHg 91%

    26 Octobre, Samedi

    Heure Température Précipitation Vent Pression Humidité
    00:00 +11°C° 0 mm 1 m/s 718 mmHg 91%
    01:00 +11°C° 0 mm 1 m/s 718 mmHg 90%
    02:00 +10°C° 0 mm 1 m/s 718 mmHg 89%
    03:00 +10°C° 0 mm 1 m/s 718 mmHg 88%
    04:00 +10°C° 0 mm 1 m/s 718 mmHg 87%
    05:00 +10°C° 0 mm 1 m/s 718 mmHg 86%
    06:00 +10°C° 0 mm 1 m/s 718 mmHg 86%
    07:00 +11°C° 0 mm 0 m/s 718 mmHg 80%
    08:00 +13°C° 0 mm 0 m/s 719 mmHg 75%
    09:00 +15°C° 0 mm 0 m/s 719 mmHg 70%
    10:00 +17°C° 0 mm 0 m/s 719 mmHg 66%
    11:00 +18°C° 0 mm 0 m/s 719 mmHg 63%
    12:00 +19°C° 0 mm 0 m/s 719 mmHg 60%
    13:00 +19°C° 0 mm 0 m/s 719 mmHg 65%
    14:00 +18°C° 0 mm 0 m/s 718 mmHg 69%
    15:00 +18°C° 0 mm 0 m/s 718 mmHg 74%
    16:00 +16°C° 0 mm 0 m/s 718 mmHg 79%
    17:00 +14°C° 0 mm 0 m/s 718 mmHg 84%
    18:00 +13°C° 0 mm 1 m/s 718 mmHg 89%
    19:00 +13°C° 0 mm 1 m/s 718 mmHg 87%
    20:00 +13°C° 0 mm 1 m/s 718 mmHg 86%
    21:00 +11°C° 0 mm 0 m/s 719 mmHg 85%
    22:00 +12°C° 0 mm 1 m/s 718 mmHg 84%
    23:00 +12°C° 0 mm 1 m/s 718 mmHg 82%

    27 Octobre, Dimanche

    Heure Température Précipitation Vent Pression Humidité
    00:00 +12°C° 0 mm 1 m/s 718 mmHg 81%
    01:00 +12°C° 0 mm 1 m/s 718 mmHg 80%
    02:00 +12°C° 0 mm 1 m/s 718 mmHg 79%
    03:00 +12°C° 0 mm 1 m/s 718 mmHg 79%
    04:00 +11°C° 0 mm 1 m/s 718 mmHg 78%
    05:00 +11°C° 0 mm 1 m/s 718 mmHg 78%
    06:00 +11°C° 0 mm 1 m/s 718 mmHg 78%
    07:00 +13°C° 0 mm 1 m/s 718 mmHg 73%
    08:00 +14°C° 0 mm 0 m/s 718 mmHg 69%
    09:00 +17°C° 0 mm 0 m/s 718 mmHg 64%
    10:00 +18°C° 0 mm 0 m/s 718 mmHg 61%
    11:00 +19°C° 0 mm 0 m/s 718 mmHg 57%
    12:00 +22°C° 0 mm 1 m/s 718 mmHg 54%
    13:00 +20°C° 0 mm 0 m/s 717 mmHg 60%
    14:00 +19°C° 0 mm 0 m/s 717 mmHg 66%
    15:00 +18°C° 0 mm 0 m/s 717 mmHg 71%
    16:00 +17°C° 0 mm 0 m/s 717 mmHg 75%
    17:00 +15°C° 0 mm 0 m/s 717 mmHg 79%
    18:00 +14°C° 0 mm 1 m/s 717 mmHg 82%
    19:00 +14°C° 0 mm 1 m/s 717 mmHg 82%
    20:00 +13°C° 0 mm 1 m/s 717 mmHg 81%
    21:00 +13°C° 0 mm 1 m/s 717 mmHg 81%
    22:00 +13°C° 0 mm 1 m/s 717 mmHg 81%
    23:00 +13°C° 0 mm 1 m/s 716 mmHg 81%
    Voir plus